О сайте

Добрый день Уважаемые посетители сайта!
Этот ресурс создан с целью предоставить любителям малой авиации максимум полезной информации и возможностей по обмену различными сведениями об аэродромах и интересных маршрутах. Для этого на сайте есть странички Аэродромы - информация из баз АОПА (в том виде как она предоставляется к свободному использованию) и Каталог аэродромов и аэроклубов , с различными вариантами поиска и сортировки, возможностью найти трансфер, арендовать авто или забронировать номер в гостинице on-line, а так же возможностями :
- для аэроклубов - добавить какую либо дополнительную информацию в страничку , посвященную аэроклубу
(чтобы добавить информацию необходимо зарегистрироваться, и подтвердить свою принадлежность к какому либо аэроклубу)
- для посетителей - поделиться каким либо интересным маршрутом, нарисовать его на карте, описать достопримечательности, загрузить фотографии и поставить в соответствие с каким либо клубом или аэродромом.
(чтобы добавить информацию необходимо зарегистрироваться)

Аэроклубы / Аэродромы в Москве

Карта аэродромов в Москве по коду ИКАО

Список аэродромов Москвы

Javascript is required to view this map.

Авиационная погода в Москва - Домодедово

Регион: 
Погода METAR: 
UUDD 021300Z 09006MPS 060V120 9999 OVC006 10/08 Q1014 R14R/290042 NOSIG
Время наблюдения: 
2020-06-02T13:00:00Z
Температура C: 
10.0
Точка росы: 
8.0
Направление ветра: 
90
Скорость ветра: 
12
Метеорологическая видимость: 
6.21
Условия полета: 
IFR
Аэропорт подробнее: 

Авиационная погода в Москва - Шереметьево

Регион: 
Погода METAR: 
UUEE 021300Z 07007MPS 9999 OVC017 10/08 Q1015 R06R/290051 NOSIG
Время наблюдения: 
2020-06-02T13:00:00Z
Температура C: 
10.0
Точка росы: 
8.0
Направление ветра: 
70
Скорость ветра: 
14
Метеорологическая видимость: 
6.21
Условия полета: 
MVFR
Аэропорт подробнее: 

Авиационная погода в Москва - Внуково

Регион: 
Погода METAR: 
UUWW 021300Z 08007MPS 9999 OVC013 10/07 Q1013 R06/190060 NOSIG
Время наблюдения: 
2020-06-02T13:00:00Z
Температура C: 
10.0
Точка росы: 
7.0
Направление ветра: 
80
Скорость ветра: 
14
Метеорологическая видимость: 
6.21
Условия полета: 
MVFR
Аэропорт подробнее: 

Аэроклубы и аэродромы по регионам Юга России